Current weather by "City, St" or "zip code"  
 

Current Conditions: Denver, Denver International Airport, CO

A Few Clouds


57.0 F

Last Updated on Oct 31 2020, 11:53 am MDT
Humidity: 33%
Wind Speed: NE 17.3 mph
Barometer 30.22 in
Dewpoint: 28.0 F
Visibility: 10.00 mi
Precip: --
Heat Index: NA
Wind Chill: 53 F
Current conditions at:

Denver, Denver International Airport, CO (KDEN)

Lat: 39.84658 Lon: 104.65622

Local Radar Image active severe weather and emergency alerts image image weather storm and storm spotter reports image weather observation monitoring service image
Local
Radar
Active
Alerts
Storm Reports Obs
Monitoring

Sign-up For Email & Text Message Weather Alert Notification Services



Advertise Here

Observation History for Denver, Denver International Airport, CO


Time Wind
(mph)
Vis
(mi)
Weather Precip (in) Temperature (F) Relative
Humidity
Wind
Chill
(F)
Heat
Index
(F)
Pressure
Air Dwpt altimeter
(in)
sea level
(mb)
Rmks
11:53 am MDT NE 17.3 10.00 A Few Clouds -- 57.0 28.0 33% 53 NA 30.22 1019.5
10:53 am MDT NE 19.6 10.00 A Few Clouds -- 56.0 24.1 29% 52 NA 30.18 1018.4
9:53 am MDT S 4.6 10.00 A Few Clouds -- 61.0 18.0 19% 61 NA 30.17 1017.2
8:53 am MDT W 4.6 10.00 A Few Clouds -- 54.0 19.9 26% 53 NA 30.14 1017.1
7:53 am MDT W 9.2 10.00 A Few Clouds -- 50.0 18.0 28% 46 NA 30.08 1015.2
6:53 am MDT SW 6.9 10.00 A Few Clouds -- 46.0 17.1 31% 42 NA 30.05 1013.8
5:53 am MDT SW 11.5 10.00 Partly Cloudy -- 49.0 17.1 28% 44 NA 30.02 1012.1
4:53 am MDT SW 6.9 10.00 Partly Cloudy -- 48.0 18.0 30% 45 NA 30.00 1010.3
3:53 am MDT SW 15.0 10.00 A Few Clouds -- 53.0 19.0 26% 48 NA 29.97 1008.8
2:53 am MDT W 13.8 10.00 Fair -- 53.0 19.0 26% 49 NA 29.96 1008.6
1:53 am MDT SW 11.5 10.00 Fair -- 49.0 21.0 33% 44 NA 29.95 1008.8
12:53 am MDT SW 15.0 10.00 Fair -- 50.0 23.0 35% 45 NA 29.94 1008.5
11:53 pm MDT SW 9.2 10.00 Fair -- 48.0 27.0 44% 44 NA 29.97 1010.1
10:53 pm MDT SW 12.7 10.00 Fair -- 48.0 30.0 50% 43 NA 29.98 1011.0
9:53 pm MDT SW 13.8 10.00 Fair -- 48.0 30.0 50% 42 NA 29.98 1011.8
8:53 pm MDT SW 8.1 10.00 Fair -- 47.0 30.0 52% 43 NA 29.99 1012.6
7:53 pm MDT SE 3.5 10.00 Fair -- 52.0 23.0 32% NA NA 30.00 1012.9
6:53 pm MDT N 6.9 10.00 A Few Clouds -- 58.0 21.0 24% 57 NA 30.00 1012.4
5:53 pm MDT N 6.9 10.00 A Few Clouds -- 60.0 19.9 21% 59 NA 30.00 1011.9
4:53 pm MDT N 3.5 10.00 A Few Clouds -- 69.0 18.0 14% NA NA 30.01 1011.5
3:53 pm MDT 3.5 10.00 A Few Clouds -- 69.0 16.0 13% NA NA 30.02 1011.9
2:53 pm MDT 4.6 10.00 A Few Clouds -- 68.0 21.9 17% NA NA 30.05 1012.9
1:53 pm MDT 3.5 10.00 Fair -- 67.0 24.1 20% NA NA 30.08 1014.3
12:53 pm MDT S 9.2 10.00 Fair -- 66.0 28.9 25% NA NA 30.13 1016.0

Regional Weather Observation


Denver, Denver International Airport, CO (KDEN)

A Few Clouds
57.0 F

Boulder Municipal Airport, CO (KBDU)

Fair
54.0 F

Broomfield / Jeffco, CO (KBJC)

A Few Clouds
66.0 F

Buckley Air Force Base Airport, CO (KBKF)

Fair and Breezy
60.0 F

Denver Nexrad, CO (KFTG)

Overcast
30.0 F

Greeley, Greeley-Weld County Airport, CO (KGXY)

Fair
54.0 F